Weather History for Alta Floresta, Brazil

Change the Weather History Date:

Wednesday, July 17, 2013

  Actual Average Record
Temperature  
Mean Temperature 82 °F -  
Max Temperature 96 °F - - ()
Min Temperature 68 °F - - ()
Cooling Degree Days 17    
Growing Degree Days 32 (Base 50)    
Moisture  
Dew Point 68 °F    
Average Humidity 62    
Maximum Humidity 94    
Minimum Humidity 29    
Precipitation  
Precipitation 0.00 in - - ()
Sea Level Pressure  
Sea Level Pressure 29.94 in    
Wind  
Wind Speed 2 mph ()    
Max Wind Speed 7 mph    
Max Gust Speed -    
Visibility 7.8 miles    
Events Thunderstorm    
T = Trace of Precipitation, MM = Missing Value Source: Averaged Metar Reports

Daily Weather History Graph

Daily Weather History Graph

Search for Another Location

Airport:

Trip Planner

Search our weather history database for the weather conditions in past years. The results will help you decide how hot, cold, wet, or windy it might be!

Date:

Astronomy

Jul. 17, 2013 Rise Set
Actual Time 6:02 AM AMT 5:38 PM AMT
Civil Twilight 5:39 AM AMT 6:01 PM AMT
Nautical Twilight 5:13 AM AMT 6:27 PM AMT
Astronomical Twilight 4:48 AM AMT 6:53 PM AMT
Moon 12:42 PM AMT (7/17) 12:36 AM AMT (7/17)
Length of Visible Light 12h 21m
Length of Day
11h 36m
Waxing Gibbous, 67% of the Moon is Illuminated
Jul 17
Waxing Gibbous
Jul 22
Full
Jul 29
Last Quarter
Aug 6
New
Aug 14
First Quarter

Hourly Weather History & Observations

Time (AMT) Temp. Heat Index Dew Point Humidity Pressure Visibility Wind Dir Wind Speed Gust Speed Precip Events Conditions
12:00 AM 71.6 °F - 66.2 °F 83% 29.95 in - Calm Calm - N/A   Clear
6:15 AM 68.0 °F - 66.2 °F 94% 29.98 in - Calm Calm - N/A   Clear
7:00 AM 73.4 °F - 66.2 °F 78% 29.98 in - Calm Calm - N/A   Clear
8:00 AM 83 °F - 69 °F 55% 29.98 in 12 mi Calm Calm - -   Scattered Clouds
8:00 AM 82.4 °F 86.3 °F 69.8 °F 66% 30.01 in - Calm Calm - N/A   Clear
9:00 AM 89.6 °F 94.7 °F 69.8 °F 52% 30.01 in - NE 4.6 mph - N/A   Clear
10:00 AM 93.2 °F 98.8 °F 69.8 °F 46% 30.01 in 6.2 mi NNE 3.5 mph - N/A   Partly Cloudy
11:00 AM 95.0 °F 99.5 °F 68.0 °F 41% 29.98 in 6.2 mi East 6.9 mph - N/A   Partly Cloudy
12:00 PM 96.8 °F 100.7 °F 66.2 °F 37% 29.95 in 6.2 mi NE 5.8 mph - N/A   Mostly Cloudy
1:00 PM 95.0 °F 98.5 °F 66.2 °F 39% 29.92 in 6.2 mi WNW 3.5 mph - N/A   Scattered Clouds
2:00 PM 95 °F - 66 °F 29% 29.85 in 12 mi NNW 3.5 mph - -   Partly Cloudy
2:00 PM 95.0 °F 98.5 °F 66.2 °F 39% 29.89 in - NNW 3.5 mph - N/A   Clear
3:00 PM 93.2 °F 94.9 °F 64.4 °F 38% 29.86 in 6.2 mi Calm Calm - N/A   Unknown
4:00 PM 89.6 °F 93.4 °F 68.0 °F 49% 29.86 in - SE 6.9 mph - N/A   Clear
5:00 PM 86.0 °F 89.4 °F 68.0 °F 55% 29.89 in 6.2 mi West 6.9 mph - N/A Thunderstorm Thunderstorm
6:00 PM 80.6 °F 83.9 °F 69.8 °F 70% 29.89 in 6.2 mi NNW 3.5 mph - N/A Thunderstorm Thunderstorm
7:00 PM 78.8 °F - 69.8 °F 74% 29.92 in 6.2 mi SW 4.6 mph - N/A Thunderstorm Partly Cloudy
8:00 PM 77 °F - 71 °F 77% 29.89 in 12 mi Calm Calm - -   Scattered Clouds
8:00 PM 77.0 °F - 71.6 °F 83% 29.92 in - Calm Calm - N/A   Clear
9:00 PM 75.2 °F - 69.8 °F 83% 29.95 in - Calm Calm - N/A   Clear
10:00 PM 75.2 °F - 71.6 °F 89% 29.95 in - Calm Calm - N/A   Clear
11:00 PM 73.4 °F - 69.8 °F 88% 29.95 in - Calm Calm - N/A   Clear